Location: Alvediston
(51.0078°N, 2.0364°W)
Time: 20:12:57
(UTC+00:00)

STARLINK-50 - Pass Details

Date: 27 February 2020
Orbit: 529 x 530 km, 53.0° (Epoch: 03 April)

Event Time Altitude Azimuth Distance (km) Brightness Sun altitude
Rises 19:36:24 0° 280° (W) 2,669 8.9 -18.3°
Reaches altitude 10° 19:38:37 10° 283° (WNW) 1,779 7.5 -18.6°
Maximum altitude 19:42:38 68° 7° (N) 576 3.6 -19.3°
Enters shadow 19:43:31 50° 67° (ENE) 682 3.7 -19.4°
